Volver al catálogo

ONEWEB-0518

ActivoComunicacionesPO
NORAD 54136·PAYLOAD·🇬🇧 United Kingdom

Lanzado Oct 22, 2022 desde Satish Dhawan Space Centre

Loading…

Próximos Pases (próximas 24 horas)

TLE

ActualizadoSource: CelesTrak SupGP

Época: Sep 14, 2026, 18:49 UTC

1 54136C 22138Z   26257.78456435 -.00000773  00000+0 -19329-2 0  2570
2 54136  87.9112 287.1239 0001796  89.6914  21.9616 13.19725676    14

Sigue ONEWEB-0518 en tiempo real con AllMySat

Download on the App Store